Time,TemperatureF,DewpointF,PressureIn,WindDirection,WindDirectionDegrees,WindSpeedMPH,WindSpeedGustMPH,Humidity,HourlyPrecipIn,Conditions,Clouds,dailyrainin,SoftwareType,DateUTC
2013-12-05 00:02:00,41.4,32.3,29.86,North,-999,-999.0,-999.0,70,-99.99,,,-99.99,,2013-12-05 05:02:00,
2013-12-05 00:03:00,41.4,32.3,29.86,North,-999,-999.0,-999.0,70,-99.99,,,-99.99,,2013-12-05 05:03:00,
2013-12-05 00:06:00,41.5,32.5,29.86,North,-999,-999.0,-999.0,70,-99.99,,,-99.99,,2013-12-05 05:06:00,
2013-12-05 00:11:00,41.5,32.5,29.89,North,-999,-999.0,-999.0,70,-99.99,,,-99.99,,2013-12-05 05:11:00,
2013-12-05 00:12:00,41.5,32.5,29.89,North,-999,-999.0,-999.0,70,-99.99,,,-99.99,,2013-12-05 05:12:00,
2013-12-05 00:18:00,41.7,32.7,29.89,North,-999,-999.0,-999.0,70,-99.99,,,-99.99,,2013-12-05 05:18:00,
2013-12-05 00:20:00,41.7,32.7,29.89,North,-999,-999.0,-999.0,70,-99.99,,,-99.99,,2013-12-05 05:20:00,
2013-12-05 00:26:00,42.1,33.0,29.86,North,-999,-999.0,-999.0,70,-99.99,,,-99.99,,2013-12-05 05:26:00,
2013-12-05 00:31:00,42.3,33.6,29.86,North,-999,-999.0,-999.0,71,-99.99,,,-99.99,,2013-12-05 05:31:00,
2013-12-05 00:36:00,42.4,33.7,29.86,North,-999,-999.0,-999.0,71,-99.99,,,-99.99,,2013-12-05 05:36:00,
2013-12-05 00:41:00,42.4,33.7,29.86,North,-999,-999.0,-999.0,71,-99.99,,,-99.99,,2013-12-05 05:41:00,
2013-12-05 00:46:00,42.6,33.9,29.86,North,-999,-999.0,-999.0,71,-99.99,,,-99.99,,2013-12-05 05:46:00,
2013-12-05 00:52:00,42.6,33.9,29.86,North,-999,-999.0,-999.0,71,-99.99,,,-99.99,,2013-12-05 05:52:00,
2013-12-05 00:57:00,42.8,34.1,29.83,North,-999,-999.0,-999.0,71,-99.99,,,-99.99,,2013-12-05 05:57:00,
2013-12-05 01:03:00,43.0,34.2,29.83,North,-999,-999.0,-999.0,71,-99.99,,,-99.99,,2013-12-05 06:03:00,
2013-12-05 01:08:00,43.3,34.9,29.83,North,-999,-999.0,-999.0,72,-99.99,,,-99.99,,2013-12-05 06:08:00,
2013-12-05 01:13:00,43.5,35.1,29.83,North,-999,-999.0,-999.0,72,-99.99,,,-99.99,,2013-12-05 06:13:00,
2013-12-05 01:19:00,43.5,35.1,29.83,North,-999,-999.0,-999.0,72,-99.99,,,-99.99,,2013-12-05 06:19:00,
2013-12-05 01:24:00,43.7,35.3,29.83,North,-999,-999.0,-999.0,72,-99.99,,,-99.99,,2013-12-05 06:24:00,
2013-12-05 01:29:00,43.7,35.3,29.83,North,-999,-999.0,-999.0,72,-99.99,,,-99.99,,2013-12-05 06:29:00,
2013-12-05 01:35:00,43.9,35.5,29.83,North,-999,-999.0,-999.0,72,-99.99,,,-99.99,,2013-12-05 06:35:00,
2013-12-05 01:41:00,43.9,35.5,29.83,North,-999,-999.0,-999.0,72,-99.99,,,-99.99,,2013-12-05 06:41:00,
2013-12-05 01:46:00,44.1,35.6,29.83,North,-999,-999.0,-999.0,72,-99.99,,,-99.99,,2013-12-05 06:46:00,
2013-12-05 01:51:00,44.2,35.8,29.83,North,-999,-999.0,-999.0,72,-99.99,,,-99.99,,2013-12-05 06:51:00,
2013-12-05 01:57:00,44.2,36.2,29.83,North,-999,-999.0,-999.0,73,-99.99,,,-99.99,,2013-12-05 06:57:00,
2013-12-05 02:02:00,44.4,36.0,29.83,North,-999,-999.0,-999.0,72,-99.99,,,-99.99,,2013-12-05 07:02:00,
2013-12-05 02:08:00,44.6,36.2,29.83,North,-999,-999.0,-999.0,72,-99.99,,,-99.99,,2013-12-05 07:08:00,
2013-12-05 02:14:00,44.6,36.2,29.83,North,-999,-999.0,-999.0,72,-99.99,,,-99.99,,2013-12-05 07:14:00,
2013-12-05 02:21:00,44.8,36.3,29.83,North,-999,-999.0,-999.0,72,-99.99,,,-99.99,,2013-12-05 07:21:00,
2013-12-05 02:26:00,44.8,36.3,29.83,North,-999,-999.0,-999.0,72,-99.99,,,-99.99,,2013-12-05 07:26:00,
2013-12-05 02:31:00,44.8,36.3,29.83,North,-999,-999.0,-999.0,72,-99.99,,,-99.99,,2013-12-05 07:31:00,
2013-12-05 02:37:00,44.8,36.3,29.83,North,-999,-999.0,-999.0,72,-99.99,,,-99.99,,2013-12-05 07:37:00,
2013-12-05 02:42:00,45.0,36.5,29.80,North,-999,-999.0,-999.0,72,-99.99,,,-99.99,,2013-12-05 07:42:00,
2013-12-05 02:48:00,45.1,36.7,29.80,North,-999,-999.0,-999.0,72,-99.99,,,-99.99,,2013-12-05 07:48:00,
2013-12-05 02:53:00,45.1,36.7,29.80,North,-999,-999.0,-999.0,72,-99.99,,,-99.99,,2013-12-05 07:53:00,
2013-12-05 02:58:00,45.1,36.7,29.80,North,-999,-999.0,-999.0,72,-99.99,,,-99.99,,2013-12-05 07:58:00,
2013-12-05 03:05:00,45.0,36.5,29.80,North,-999,-999.0,-999.0,72,-99.99,,,-99.99,,2013-12-05 08:05:00,
2013-12-05 03:14:00,45.0,36.5,29.80,North,-999,-999.0,-999.0,72,-99.99,,,-99.99,,2013-12-05 08:14:00,
2013-12-05 03:20:00,45.0,36.5,29.80,North,-999,-999.0,-999.0,72,-99.99,,,-99.99,,2013-12-05 08:20:00,
2013-12-05 03:26:00,45.1,37.0,29.77,North,-999,-999.0,-999.0,73,-99.99,,,-99.99,,2013-12-05 08:26:00,
2013-12-05 03:32:00,45.1,37.0,29.77,North,-999,-999.0,-999.0,73,-99.99,,,-99.99,,2013-12-05 08:32:00,
2013-12-05 03:37:00,45.3,37.2,29.77,North,-999,-999.0,-999.0,73,-99.99,,,-99.99,,2013-12-05 08:37:00,
2013-12-05 03:42:00,45.3,37.2,29.77,North,-999,-999.0,-999.0,73,-99.99,,,-99.99,,2013-12-05 08:42:00,
2013-12-05 03:48:00,45.5,37.4,29.77,North,-999,-999.0,-999.0,73,-99.99,,,-99.99,,2013-12-05 08:48:00,
2013-12-05 03:54:00,45.7,37.5,29.77,North,-999,-999.0,-999.0,73,-99.99,,,-99.99,,2013-12-05 08:54:00,
2013-12-05 03:59:00,45.9,38.1,29.77,North,-999,-999.0,-999.0,74,-99.99,,,-99.99,,2013-12-05 08:59:00,
2013-12-05 04:04:00,46.0,38.2,29.77,North,-999,-999.0,-999.0,74,-99.99,,,-99.99,,2013-12-05 09:04:00,
2013-12-05 04:09:00,46.2,38.4,29.77,North,-999,-999.0,-999.0,74,-99.99,,,-99.99,,2013-12-05 09:09:00,
2013-12-05 04:15:00,46.6,38.8,29.77,North,-999,-999.0,-999.0,74,-99.99,,,-99.99,,2013-12-05 09:15:00,
2013-12-05 04:20:00,46.8,38.9,29.77,North,-999,-999.0,-999.0,74,-99.99,,,-99.99,,2013-12-05 09:20:00,
2013-12-05 04:26:00,46.9,39.4,29.77,North,-999,-999.0,-999.0,75,-99.99,,,-99.99,,2013-12-05 09:26:00,
2013-12-05 04:31:00,47.1,39.6,29.77,North,-999,-999.0,-999.0,75,-99.99,,,-99.99,,2013-12-05 09:31:00,
2013-12-05 04:37:00,47.3,39.8,29.77,North,-999,-999.0,-999.0,75,-99.99,,,-99.99,,2013-12-05 09:37:00,
2013-12-05 04:43:00,47.5,40.0,29.77,North,-999,-999.0,-999.0,75,-99.99,,,-99.99,,2013-12-05 09:43:00,
2013-12-05 04:50:00,47.8,40.3,29.77,North,-999,-999.0,-999.0,75,-99.99,,,-99.99,,2013-12-05 09:50:00,
2013-12-05 04:55:00,48.0,40.5,29.77,North,-999,-999.0,-999.0,75,-99.99,,,-99.99,,2013-12-05 09:55:00,
2013-12-05 05:01:00,48.4,40.8,29.77,North,-999,-999.0,-999.0,75,-99.99,,,-99.99,,2013-12-05 10:01:00,
2013-12-05 05:06:00,48.6,40.7,29.77,North,-999,-999.0,-999.0,74,-99.99,,,-99.99,,2013-12-05 10:06:00,
2013-12-05 05:12:00,48.7,40.8,29.77,North,-999,-999.0,-999.0,74,-99.99,,,-99.99,,2013-12-05 10:12:00,
2013-12-05 05:17:00,48.9,41.0,29.77,North,-999,-999.0,-999.0,74,-99.99,,,-99.99,,2013-12-05 10:17:00,
2013-12-05 05:23:00,49.3,41.4,29.77,North,-999,-999.0,-999.0,74,-99.99,,,-99.99,,2013-12-05 10:23:00,
2013-12-05 05:29:00,49.6,41.7,29.77,North,-999,-999.0,-999.0,74,-99.99,,,-99.99,,2013-12-05 10:29:00,
2013-12-05 05:34:00,49.6,41.7,29.77,North,-999,-999.0,-999.0,74,-99.99,,,-99.99,,2013-12-05 10:34:00,
2013-12-05 05:39:00,49.6,41.4,29.77,North,-999,-999.0,-999.0,73,-99.99,,,-99.99,,2013-12-05 10:39:00,
2013-12-05 05:45:00,49.8,41.5,29.77,North,-999,-999.0,-999.0,73,-99.99,,,-99.99,,2013-12-05 10:45:00,
2013-12-05 05:53:00,50.0,41.3,29.77,North,-999,-999.0,-999.0,72,-99.99,,,-99.99,,2013-12-05 10:53:00,
2013-12-05 05:59:00,50.0,41.3,29.77,North,-999,-999.0,-999.0,72,-99.99,,,-99.99,,2013-12-05 10:59:00,
2013-12-05 06:04:00,49.8,41.5,29.77,North,-999,-999.0,-999.0,73,-99.99,,,-99.99,,2013-12-05 11:04:00,
2013-12-05 06:10:00,50.0,41.3,29.74,North,-999,-999.0,-999.0,72,-99.99,,,-99.99,,2013-12-05 11:10:00,
2013-12-05 06:15:00,50.2,41.5,29.74,North,-999,-999.0,-999.0,72,-99.99,,,-99.99,,2013-12-05 11:15:00,
2013-12-05 06:25:00,50.2,41.5,29.77,North,-999,-999.0,-999.0,72,-99.99,,,-99.99,,2013-12-05 11:25:00,
2013-12-05 06:30:00,50.2,41.5,29.77,North,-999,-999.0,-999.0,72,-99.99,,,-99.99,,2013-12-05 11:30:00,
2013-12-05 06:37:00,50.2,41.5,29.77,North,-999,-999.0,-999.0,72,-99.99,,,-99.99,,2013-12-05 11:37:00,
2013-12-05 06:44:00,50.4,41.7,29.74,North,-999,-999.0,-999.0,72,-99.99,,,-99.99,,2013-12-05 11:44:00,
2013-12-05 06:49:00,50.5,41.9,29.74,North,-999,-999.0,-999.0,72,-99.99,,,-99.99,,2013-12-05 11:49:00,
2013-12-05 06:54:00,50.4,41.7,29.74,North,-999,-999.0,-999.0,72,-99.99,,,-99.99,,2013-12-05 11:54:00,
2013-12-05 06:59:00,50.4,41.7,29.74,North,-999,-999.0,-999.0,72,-99.99,,,-99.99,,2013-12-05 11:59:00,
2013-12-05 07:05:00,50.5,41.9,29.74,North,-999,-999.0,-999.0,72,-99.99,,,-99.99,,2013-12-05 12:05:00,
2013-12-05 07:11:00,50.7,42.0,29.77,North,-999,-999.0,-999.0,72,-99.99,,,-99.99,,2013-12-05 12:11:00,
2013-12-05 07:16:00,50.9,42.2,29.77,North,-999,-999.0,-999.0,72,-99.99,,,-99.99,,2013-12-05 12:16:00,
2013-12-05 07:22:00,51.1,42.4,29.77,North,-999,-999.0,-999.0,72,-99.99,,,-99.99,,2013-12-05 12:22:00,
2013-12-05 07:29:00,51.4,43.1,29.77,North,-999,-999.0,-999.0,73,-99.99,,,-99.99,,2013-12-05 12:29:00,
2013-12-05 07:34:00,51.6,43.3,29.77,North,-999,-999.0,-999.0,73,-99.99,,,-99.99,,2013-12-05 12:34:00,
2013-12-05 07:39:00,51.8,43.1,29.77,North,-999,-999.0,-999.0,72,-99.99,,,-99.99,,2013-12-05 12:39:00,
2013-12-05 07:44:00,52.0,43.3,29.77,North,-999,-999.0,-999.0,72,-99.99,,,-99.99,,2013-12-05 12:44:00,
2013-12-05 07:49:00,52.2,43.4,29.77,North,-999,-999.0,-999.0,72,-99.99,,,-99.99,,2013-12-05 12:49:00,
2013-12-05 07:55:00,52.3,43.6,29.77,North,-999,-999.0,-999.0,72,-99.99,,,-99.99,,2013-12-05 12:55:00,
2013-12-05 08:00:00,52.5,43.8,29.77,North,-999,-999.0,-999.0,72,-99.99,,,-99.99,,2013-12-05 13:00:00,
2013-12-05 08:05:00,52.7,43.9,29.77,North,-999,-999.0,-999.0,72,-99.99,,,-99.99,,2013-12-05 13:05:00,
2013-12-05 08:10:00,52.9,44.1,29.77,North,-999,-999.0,-999.0,72,-99.99,,,-99.99,,2013-12-05 13:10:00,
2013-12-05 08:15:00,53.1,43.9,29.77,North,-999,-999.0,-999.0,71,-99.99,,,-99.99,,2013-12-05 13:15:00,
2013-12-05 08:23:00,53.4,44.3,29.77,North,-999,-999.0,-999.0,71,-99.99,,,-99.99,,2013-12-05 13:23:00,
2013-12-05 08:31:00,53.6,44.4,29.77,North,-999,-999.0,-999.0,71,-99.99,,,-99.99,,2013-12-05 13:31:00,
2013-12-05 08:38:00,53.8,44.2,29.77,North,-999,-999.0,-999.0,70,-99.99,,,-99.99,,2013-12-05 13:38:00,
2013-12-05 08:43:00,54.0,44.4,29.77,North,-999,-999.0,-999.0,70,-99.99,,,-99.99,,2013-12-05 13:43:00,
2013-12-05 08:48:00,54.1,44.6,29.77,North,-999,-999.0,-999.0,70,-99.99,,,-99.99,,2013-12-05 13:48:00,
2013-12-05 08:55:00,54.1,44.6,29.77,North,-999,-999.0,-999.0,70,-99.99,,,-99.99,,2013-12-05 13:55:00,
2013-12-05 09:00:00,54.3,44.4,29.77,North,-999,-999.0,-999.0,69,-99.99,,,-99.99,,2013-12-05 14:00:00,
2013-12-05 09:06:00,54.3,44.4,29.77,North,-999,-999.0,-999.0,69,-99.99,,,-99.99,,2013-12-05 14:06:00,
2013-12-05 09:11:00,54.5,44.6,29.77,North,-999,-999.0,-999.0,69,-99.99,,,-99.99,,2013-12-05 14:11:00,
2013-12-05 09:17:00,54.5,44.6,29.77,North,-999,-999.0,-999.0,69,-99.99,,,-99.99,,2013-12-05 14:17:00,
2013-12-05 09:22:00,54.7,44.7,29.77,North,-999,-999.0,-999.0,69,-99.99,,,-99.99,,2013-12-05 14:22:00,
2013-12-05 09:28:00,54.9,44.9,29.77,North,-999,-999.0,-999.0,69,-99.99,,,-99.99,,2013-12-05 14:28:00,
2013-12-05 09:33:00,55.0,44.7,29.77,North,-999,-999.0,-999.0,68,-99.99,,,-99.99,,2013-12-05 14:33:00,
2013-12-05 09:39:00,55.2,44.9,29.77,North,-999,-999.0,-999.0,68,-99.99,,,-99.99,,2013-12-05 14:39:00,
2013-12-05 09:45:00,55.4,45.0,29.77,North,-999,-999.0,-999.0,68,-99.99,,,-99.99,,2013-12-05 14:45:00,
2013-12-05 09:50:00,55.6,45.2,29.77,North,-999,-999.0,-999.0,68,-99.99,,,-99.99,,2013-12-05 14:50:00,
2013-12-05 09:56:00,55.8,45.0,29.77,North,-999,-999.0,-999.0,67,-99.99,,,-99.99,,2013-12-05 14:56:00,
2013-12-05 10:01:00,55.9,45.2,29.77,North,-999,-999.0,-999.0,67,-99.99,,,-99.99,,2013-12-05 15:01:00,
2013-12-05 10:06:00,56.1,45.3,29.77,North,-999,-999.0,-999.0,67,-99.99,,,-99.99,,2013-12-05 15:06:00,
2013-12-05 10:11:00,56.3,45.5,29.77,North,-999,-999.0,-999.0,67,-99.99,,,-99.99,,2013-12-05 15:11:00,
2013-12-05 10:16:00,56.5,45.7,29.77,North,-999,-999.0,-999.0,67,-99.99,,,-99.99,,2013-12-05 15:16:00,
2013-12-05 10:22:00,56.5,45.7,29.77,North,-999,-999.0,-999.0,67,-99.99,,,-99.99,,2013-12-05 15:22:00,
2013-12-05 10:27:00,56.7,45.8,29.77,North,-999,-999.0,-999.0,67,-99.99,,,-99.99,,2013-12-05 15:27:00,
2013-12-05 10:33:00,56.8,46.0,29.77,North,-999,-999.0,-999.0,67,-99.99,,,-99.99,,2013-12-05 15:33:00,
2013-12-05 10:38:00,57.2,46.4,29.77,North,-999,-999.0,-999.0,67,-99.99,,,-99.99,,2013-12-05 15:38:00,
2013-12-05 10:44:00,57.4,46.5,29.77,North,-999,-999.0,-999.0,67,-99.99,,,-99.99,,2013-12-05 15:44:00,
2013-12-05 10:49:00,57.6,46.7,29.77,North,-999,-999.0,-999.0,67,-99.99,,,-99.99,,2013-12-05 15:49:00,
2013-12-05 10:54:00,57.7,46.9,29.77,North,-999,-999.0,-999.0,67,-99.99,,,-99.99,,2013-12-05 15:54:00,
2013-12-05 10:59:00,57.9,47.0,29.77,North,-999,-999.0,-999.0,67,-99.99,,,-99.99,,2013-12-05 15:59:00,
2013-12-05 11:05:00,57.9,47.0,29.77,North,-999,-999.0,-999.0,67,-99.99,,,-99.99,,2013-12-05 16:05:00,
2013-12-05 11:12:00,58.1,46.8,29.74,North,-999,-999.0,-999.0,66,-99.99,,,-99.99,,2013-12-05 16:12:00,
2013-12-05 11:17:00,58.3,47.0,29.74,North,-999,-999.0,-999.0,66,-99.99,,,-99.99,,2013-12-05 16:17:00,
2013-12-05 11:22:00,58.5,47.2,29.74,North,-999,-999.0,-999.0,66,-99.99,,,-99.99,,2013-12-05 16:22:00,
2013-12-05 11:29:00,58.8,47.5,29.74,North,-999,-999.0,-999.0,66,-99.99,,,-99.99,,2013-12-05 16:29:00,
2013-12-05 11:36:00,59.0,47.3,29.74,North,-999,-999.0,-999.0,65,-99.99,,,-99.99,,2013-12-05 16:36:00,
2013-12-05 11:43:00,59.2,47.0,29.74,North,-999,-999.0,-999.0,64,-99.99,,,-99.99,,2013-12-05 16:43:00,
2013-12-05 11:49:00,59.2,47.0,29.74,North,-999,-999.0,-999.0,64,-99.99,,,-99.99,,2013-12-05 16:49:00,
2013-12-05 11:55:00,59.4,47.2,29.74,North,-999,-999.0,-999.0,64,-99.99,,,-99.99,,2013-12-05 16:55:00,
2013-12-05 12:01:00,59.7,47.5,29.74,North,-999,-999.0,-999.0,64,-99.99,,,-99.99,,2013-12-05 17:01:00,
2013-12-05 12:07:00,59.7,47.5,29.74,North,-999,-999.0,-999.0,64,-99.99,,,-99.99,,2013-12-05 17:07:00,
2013-12-05 12:12:00,59.9,47.7,29.74,North,-999,-999.0,-999.0,64,-99.99,,,-99.99,,2013-12-05 17:12:00,
2013-12-05 12:19:00,60.3,47.6,29.74,North,-999,-999.0,-999.0,63,-99.99,,,-99.99,,2013-12-05 17:19:00,
2013-12-05 12:26:00,60.3,47.6,29.71,North,-999,-999.0,-999.0,63,-99.99,,,-99.99,,2013-12-05 17:26:00,
2013-12-05 12:32:00,60.3,47.6,29.71,North,-999,-999.0,-999.0,63,-99.99,,,-99.99,,2013-12-05 17:32:00,
2013-12-05 12:37:00,60.4,47.8,29.71,North,-999,-999.0,-999.0,63,-99.99,,,-99.99,,2013-12-05 17:37:00,
2013-12-05 12:42:00,60.4,47.8,29.71,North,-999,-999.0,-999.0,63,-99.99,,,-99.99,,2013-12-05 17:42:00,
2013-12-05 12:47:00,60.4,47.8,29.71,North,-999,-999.0,-999.0,63,-99.99,,,-99.99,,2013-12-05 17:47:00,
2013-12-05 12:52:00,60.6,47.5,29.71,North,-999,-999.0,-999.0,62,-99.99,,,-99.99,,2013-12-05 17:52:00,
2013-12-05 12:58:00,60.8,47.7,29.71,North,-999,-999.0,-999.0,62,-99.99,,,-99.99,,2013-12-05 17:58:00,
2013-12-05 13:03:00,60.8,47.7,29.71,North,-999,-999.0,-999.0,62,-99.99,,,-99.99,,2013-12-05 18:03:00,
2013-12-05 13:09:00,60.8,47.7,29.71,North,-999,-999.0,-999.0,62,-99.99,,,-99.99,,2013-12-05 18:09:00,
2013-12-05 13:15:00,61.0,47.9,29.71,North,-999,-999.0,-999.0,62,-99.99,,,-99.99,,2013-12-05 18:15:00,
2013-12-05 13:20:00,61.0,47.9,29.71,North,-999,-999.0,-999.0,62,-99.99,,,-99.99,,2013-12-05 18:20:00,
2013-12-05 13:26:00,61.2,48.1,29.71,North,-999,-999.0,-999.0,62,-99.99,,,-99.99,,2013-12-05 18:26:00,
2013-12-05 13:31:00,61.3,48.2,29.71,North,-999,-999.0,-999.0,62,-99.99,,,-99.99,,2013-12-05 18:31:00,
2013-12-05 13:37:00,61.3,47.8,29.71,North,-999,-999.0,-999.0,61,-99.99,,,-99.99,,2013-12-05 18:37:00,
2013-12-05 13:42:00,61.5,48.0,29.71,North,-999,-999.0,-999.0,61,-99.99,,,-99.99,,2013-12-05 18:42:00,
2013-12-05 13:47:00,61.5,48.0,29.71,North,-999,-999.0,-999.0,61,-99.99,,,-99.99,,2013-12-05 18:47:00,
2013-12-05 13:52:00,61.7,48.1,29.71,North,-999,-999.0,-999.0,61,-99.99,,,-99.99,,2013-12-05 18:52:00,
2013-12-05 13:57:00,61.7,48.1,29.71,North,-999,-999.0,-999.0,61,-99.99,,,-99.99,,2013-12-05 18:57:00,
2013-12-05 14:03:00,61.7,48.1,29.71,North,-999,-999.0,-999.0,61,-99.99,,,-99.99,,2013-12-05 19:03:00,
2013-12-05 14:08:00,61.7,48.1,29.71,North,-999,-999.0,-999.0,61,-99.99,,,-99.99,,2013-12-05 19:08:00,
2013-12-05 14:13:00,61.9,48.3,29.71,North,-999,-999.0,-999.0,61,-99.99,,,-99.99,,2013-12-05 19:13:00,
2013-12-05 14:18:00,61.7,48.1,29.71,North,-999,-999.0,-999.0,61,-99.99,,,-99.99,,2013-12-05 19:18:00,
2013-12-05 14:23:00,61.7,48.1,29.71,North,-999,-999.0,-999.0,61,-99.99,,,-99.99,,2013-12-05 19:23:00,
2013-12-05 14:29:00,61.7,48.1,29.71,North,-999,-999.0,-999.0,61,-99.99,,,-99.99,,2013-12-05 19:29:00,
2013-12-05 14:34:00,61.7,48.1,29.71,North,-999,-999.0,-999.0,61,-99.99,,,-99.99,,2013-12-05 19:34:00,
2013-12-05 14:40:00,61.5,48.0,29.71,North,-999,-999.0,-999.0,61,-99.99,,,-99.99,,2013-12-05 19:40:00,
2013-12-05 14:45:00,61.3,47.8,29.71,North,-999,-999.0,-999.0,61,-99.99,,,-99.99,,2013-12-05 19:45:00,
2013-12-05 14:50:00,61.3,48.2,29.71,North,-999,-999.0,-999.0,62,-99.99,,,-99.99,,2013-12-05 19:50:00,
2013-12-05 14:55:00,61.2,48.1,29.74,North,-999,-999.0,-999.0,62,-99.99,,,-99.99,,2013-12-05 19:55:00,
2013-12-05 15:00:00,61.0,47.9,29.74,North,-999,-999.0,-999.0,62,-99.99,,,-99.99,,2013-12-05 20:00:00,
2013-12-05 15:06:00,61.0,47.9,29.74,North,-999,-999.0,-999.0,62,-99.99,,,-99.99,,2013-12-05 20:06:00,
2013-12-05 15:11:00,60.8,47.7,29.71,North,-999,-999.0,-999.0,62,-99.99,,,-99.99,,2013-12-05 20:11:00,
2013-12-05 15:16:00,60.6,47.5,29.71,North,-999,-999.0,-999.0,62,-99.99,,,-99.99,,2013-12-05 20:16:00,
2013-12-05 15:21:00,60.6,47.5,29.71,North,-999,-999.0,-999.0,62,-99.99,,,-99.99,,2013-12-05 20:21:00,
2013-12-05 15:26:00,60.4,47.4,29.74,North,-999,-999.0,-999.0,62,-99.99,,,-99.99,,2013-12-05 20:26:00,
2013-12-05 15:32:00,60.4,47.4,29.74,North,-999,-999.0,-999.0,62,-99.99,,,-99.99,,2013-12-05 20:32:00,
2013-12-05 15:37:00,60.3,47.2,29.74,North,-999,-999.0,-999.0,62,-99.99,,,-99.99,,2013-12-05 20:37:00,
2013-12-05 15:45:00,60.1,47.0,29.74,North,-999,-999.0,-999.0,62,-99.99,,,-99.99,,2013-12-05 20:45:00,
2013-12-05 15:52:00,59.9,46.9,29.74,North,-999,-999.0,-999.0,62,-99.99,,,-99.99,,2013-12-05 20:52:00,
2013-12-05 16:01:00,59.5,45.7,29.77,North,-999,-999.0,-999.0,60,-99.99,,,-99.99,,2013-12-05 21:01:00,
2013-12-05 16:06:00,59.2,44.9,29.77,North,-999,-999.0,-999.0,59,-99.99,,,-99.99,,2013-12-05 21:06:00,
2013-12-05 16:13:00,58.8,44.1,29.77,North,-999,-999.0,-999.0,58,-99.99,,,-99.99,,2013-12-05 21:13:00,
2013-12-05 16:22:00,58.1,42.0,29.77,North,-999,-999.0,-999.0,55,-99.99,,,-99.99,,2013-12-05 21:22:00,
2013-12-05 16:28:00,57.7,40.8,29.80,North,-999,-999.0,-999.0,53,-99.99,,,-99.99,,2013-12-05 21:28:00,
2013-12-05 16:33:00,57.4,39.9,29.80,North,-999,-999.0,-999.0,52,-99.99,,,-99.99,,2013-12-05 21:33:00,
2013-12-05 16:39:00,57.0,39.6,29.80,North,-999,-999.0,-999.0,52,-99.99,,,-99.99,,2013-12-05 21:39:00,
2013-12-05 16:44:00,56.7,38.8,29.80,North,-999,-999.0,-999.0,51,-99.99,,,-99.99,,2013-12-05 21:44:00,
2013-12-05 16:55:00,56.1,36.7,29.80,North,-999,-999.0,-999.0,48,-99.99,,,-99.99,,2013-12-05 21:55:00,
2013-12-05 17:00:00,55.9,36.6,29.80,North,-999,-999.0,-999.0,48,-99.99,,,-99.99,,2013-12-05 22:00:00,
2013-12-05 17:06:00,55.6,36.2,29.80,North,-999,-999.0,-999.0,48,-99.99,,,-99.99,,2013-12-05 22:06:00,
2013-12-05 17:12:00,55.4,35.5,29.80,North,-999,-999.0,-999.0,47,-99.99,,,-99.99,,2013-12-05 22:12:00,
2013-12-05 17:18:00,55.2,35.4,29.80,North,-999,-999.0,-999.0,47,-99.99,,,-99.99,,2013-12-05 22:18:00,
2013-12-05 17:23:00,55.0,35.2,29.80,North,-999,-999.0,-999.0,47,-99.99,,,-99.99,,2013-12-05 22:23:00,
2013-12-05 17:28:00,54.9,34.5,29.83,North,-999,-999.0,-999.0,46,-99.99,,,-99.99,,2013-12-05 22:28:00,
2013-12-05 17:34:00,54.7,33.8,29.83,North,-999,-999.0,-999.0,45,-99.99,,,-99.99,,2013-12-05 22:34:00,
2013-12-05 17:40:00,54.7,33.8,29.83,North,-999,-999.0,-999.0,45,-99.99,,,-99.99,,2013-12-05 22:40:00,
2013-12-05 17:52:00,54.3,32.9,29.83,North,-999,-999.0,-999.0,44,-99.99,,,-99.99,,2013-12-05 22:52:00,
2013-12-05 17:57:00,54.1,32.7,29.83,North,-999,-999.0,-999.0,44,-99.99,,,-99.99,,2013-12-05 22:57:00,
2013-12-05 18:02:00,54.1,32.7,29.83,North,-999,-999.0,-999.0,44,-99.99,,,-99.99,,2013-12-05 23:02:00,
2013-12-05 18:08:00,54.0,32.6,29.83,North,-999,-999.0,-999.0,44,-99.99,,,-99.99,,2013-12-05 23:08:00,
2013-12-05 18:14:00,53.6,32.8,29.83,North,-999,-999.0,-999.0,45,-99.99,,,-99.99,,2013-12-05 23:14:00,
2013-12-05 18:19:00,53.4,33.2,29.83,North,-999,-999.0,-999.0,46,-99.99,,,-99.99,,2013-12-05 23:19:00,
2013-12-05 18:25:00,53.2,33.6,29.86,North,-999,-999.0,-999.0,47,-99.99,,,-99.99,,2013-12-05 23:25:00,
2013-12-05 18:30:00,53.1,33.9,29.86,North,-999,-999.0,-999.0,48,-99.99,,,-99.99,,2013-12-05 23:30:00,
2013-12-05 18:36:00,52.9,33.8,29.86,North,-999,-999.0,-999.0,48,-99.99,,,-99.99,,2013-12-05 23:36:00,
2013-12-05 18:41:00,52.5,33.9,29.86,North,-999,-999.0,-999.0,49,-99.99,,,-99.99,,2013-12-05 23:41:00,
2013-12-05 18:49:00,52.3,33.8,29.86,North,-999,-999.0,-999.0,49,-99.99,,,-99.99,,2013-12-05 23:49:00,
2013-12-05 18:54:00,52.2,34.1,29.89,North,-999,-999.0,-999.0,50,-99.99,,,-99.99,,2013-12-05 23:54:00,
2013-12-05 19:02:00,52.0,34.0,29.89,North,-999,-999.0,-999.0,50,-99.99,,,-99.99,,2013-12-06 00:02:00,
2013-12-05 19:07:00,52.0,34.4,29.89,North,-999,-999.0,-999.0,51,-99.99,,,-99.99,,2013-12-06 00:07:00,
2013-12-05 19:13:00,51.8,34.3,29.89,North,-999,-999.0,-999.0,51,-99.99,,,-99.99,,2013-12-06 00:13:00,
2013-12-05 19:18:00,51.6,34.6,29.89,North,-999,-999.0,-999.0,52,-99.99,,,-99.99,,2013-12-06 00:18:00,
2013-12-05 19:24:00,51.6,34.6,29.89,North,-999,-999.0,-999.0,52,-99.99,,,-99.99,,2013-12-06 00:24:00,
2013-12-05 19:31:00,51.4,34.4,29.89,North,-999,-999.0,-999.0,52,-99.99,,,-99.99,,2013-12-06 00:31:00,
2013-12-05 19:37:00,51.1,34.1,29.89,North,-999,-999.0,-999.0,52,-99.99,,,-99.99,,2013-12-06 00:37:00,
2013-12-05 19:43:00,51.1,34.1,29.89,North,-999,-999.0,-999.0,52,-99.99,,,-99.99,,2013-12-06 00:43:00,
2013-12-05 19:48:00,50.9,34.4,29.89,North,-999,-999.0,-999.0,53,-99.99,,,-99.99,,2013-12-06 00:48:00,
2013-12-05 19:54:00,50.9,34.4,29.89,North,-999,-999.0,-999.0,53,-99.99,,,-99.99,,2013-12-06 00:54:00,
2013-12-05 19:59:00,50.7,34.2,29.92,North,-999,-999.0,-999.0,53,-99.99,,,-99.99,,2013-12-06 00:59:00,
2013-12-05 20:05:00,50.5,34.1,29.92,North,-999,-999.0,-999.0,53,-99.99,,,-99.99,,2013-12-06 01:05:00,
2013-12-05 20:10:00,50.5,34.1,29.92,North,-999,-999.0,-999.0,53,-99.99,,,-99.99,,2013-12-06 01:10:00,
2013-12-05 20:15:00,50.4,33.9,29.92,North,-999,-999.0,-999.0,53,-99.99,,,-99.99,,2013-12-06 01:15:00,
2013-12-05 20:22:00,50.2,33.7,29.92,North,-999,-999.0,-999.0,53,-99.99,,,-99.99,,2013-12-06 01:22:00,
2013-12-05 20:27:00,50.2,34.2,29.92,North,-999,-999.0,-999.0,54,-99.99,,,-99.99,,2013-12-06 01:27:00,
2013-12-05 20:33:00,50.2,34.2,29.92,North,-999,-999.0,-999.0,54,-99.99,,,-99.99,,2013-12-06 01:33:00,
2013-12-05 20:39:00,50.0,34.0,29.92,North,-999,-999.0,-999.0,54,-99.99,,,-99.99,,2013-12-06 01:39:00,
2013-12-05 20:44:00,50.0,34.0,29.92,North,-999,-999.0,-999.0,54,-99.99,,,-99.99,,2013-12-06 01:44:00,
2013-12-05 20:50:00,50.0,34.0,29.92,North,-999,-999.0,-999.0,54,-99.99,,,-99.99,,2013-12-06 01:50:00,
2013-12-05 20:55:00,49.8,33.9,29.89,North,-999,-999.0,-999.0,54,-99.99,,,-99.99,,2013-12-06 01:55:00,
2013-12-05 21:02:00,49.8,33.9,29.89,North,-999,-999.0,-999.0,54,-99.99,,,-99.99,,2013-12-06 02:02:00,
2013-12-05 21:07:00,49.6,33.7,29.89,North,-999,-999.0,-999.0,54,-99.99,,,-99.99,,2013-12-06 02:07:00,
2013-12-05 21:12:00,49.5,34.0,29.89,North,-999,-999.0,-999.0,55,-99.99,,,-99.99,,2013-12-06 02:12:00,
2013-12-05 21:17:00,49.5,34.0,29.89,North,-999,-999.0,-999.0,55,-99.99,,,-99.99,,2013-12-06 02:17:00,
2013-12-05 21:24:00,49.5,34.0,29.89,North,-999,-999.0,-999.0,55,-99.99,,,-99.99,,2013-12-06 02:24:00,
2013-12-05 21:32:00,49.3,33.8,29.92,North,-999,-999.0,-999.0,55,-99.99,,,-99.99,,2013-12-06 02:32:00,
2013-12-05 21:37:00,49.3,33.8,29.92,North,-999,-999.0,-999.0,55,-99.99,,,-99.99,,2013-12-06 02:37:00,
2013-12-05 21:42:00,49.1,33.7,29.95,North,-999,-999.0,-999.0,55,-99.99,,,-99.99,,2013-12-06 02:42:00,
2013-12-05 21:47:00,49.1,33.7,29.95,North,-999,-999.0,-999.0,55,-99.99,,,-99.99,,2013-12-06 02:47:00,
2013-12-05 21:54:00,48.9,32.6,29.95,North,-999,-999.0,-999.0,53,-99.99,,,-99.99,,2013-12-06 02:54:00,
2013-12-05 22:00:00,48.7,31.9,29.95,North,-999,-999.0,-999.0,52,-99.99,,,-99.99,,2013-12-06 03:00:00,
2013-12-05 22:06:00,48.6,31.3,29.95,North,-999,-999.0,-999.0,51,-99.99,,,-99.99,,2013-12-06 03:06:00,
2013-12-05 22:12:00,48.4,30.6,29.95,North,-999,-999.0,-999.0,50,-99.99,,,-99.99,,2013-12-06 03:12:00,
2013-12-05 22:18:00,48.2,30.0,29.95,North,-999,-999.0,-999.0,49,-99.99,,,-99.99,,2013-12-06 03:18:00,
2013-12-05 22:23:00,48.0,29.8,29.95,North,-999,-999.0,-999.0,49,-99.99,,,-99.99,,2013-12-06 03:23:00,
2013-12-05 22:28:00,48.0,29.8,29.98,North,-999,-999.0,-999.0,49,-99.99,,,-99.99,,2013-12-06 03:28:00,
2013-12-05 22:33:00,47.8,29.1,29.98,North,-999,-999.0,-999.0,48,-99.99,,,-99.99,,2013-12-06 03:33:00,
2013-12-05 22:39:00,47.8,29.1,29.98,North,-999,-999.0,-999.0,48,-99.99,,,-99.99,,2013-12-06 03:39:00,
2013-12-05 22:44:00,47.8,29.1,29.98,North,-999,-999.0,-999.0,48,-99.99,,,-99.99,,2013-12-06 03:44:00,
2013-12-05 22:51:00,47.7,29.0,29.98,North,-999,-999.0,-999.0,48,-99.99,,,-99.99,,2013-12-06 03:51:00,
2013-12-05 22:56:00,47.7,29.0,29.98,North,-999,-999.0,-999.0,48,-99.99,,,-99.99,,2013-12-06 03:56:00,
2013-12-05 23:06:00,47.3,28.1,29.98,North,-999,-999.0,-999.0,47,-99.99,,,-99.99,,2013-12-06 04:06:00,
2013-12-05 23:11:00,47.3,28.1,29.95,North,-999,-999.0,-999.0,47,-99.99,,,-99.99,,2013-12-06 04:11:00,
2013-12-05 23:16:00,47.1,28.0,29.95,North,-999,-999.0,-999.0,47,-99.99,,,-99.99,,2013-12-06 04:16:00,
2013-12-05 23:22:00,47.1,28.0,29.95,North,-999,-999.0,-999.0,47,-99.99,,,-99.99,,2013-12-06 04:22:00,
2013-12-05 23:27:00,46.9,27.8,29.95,North,-999,-999.0,-999.0,47,-99.99,,,-99.99,,2013-12-06 04:27:00,
2013-12-05 23:33:00,46.8,28.1,29.95,North,-999,-999.0,-999.0,48,-99.99,,,-99.99,,2013-12-06 04:33:00,
2013-12-05 23:38:00,46.8,28.1,29.95,North,-999,-999.0,-999.0,48,-99.99,,,-99.99,,2013-12-06 04:38:00,
2013-12-05 23:43:00,46.6,28.5,29.95,North,-999,-999.0,-999.0,49,-99.99,,,-99.99,,2013-12-06 04:43:00,
2013-12-05 23:49:00,46.2,28.6,29.95,North,-999,-999.0,-999.0,50,-99.99,,,-99.99,,2013-12-06 04:49:00,
2013-12-05 23:54:00,46.0,28.5,29.95,North,-999,-999.0,-999.0,50,-99.99,,,-99.99,,2013-12-06 04:54:00,
2013-12-05 23:59:00,45.9,28.8,29.98,North,-999,-999.0,-999.0,51,-99.99,,,-99.99,,2013-12-06 04:59:00,